Location: ?????????
(53.2086°N, 54.0693°E)
Time: 20:47:36
(UTC+00:00)

Cosmos 1908 Rocket - Pass Details

Date: 08 December 2019
Orbit: 605 x 633 km, 82.5° (Epoch: 28 January)

Event Time Altitude Azimuth Distance (km) Brightness Sun altitude
Rises 13:30:24 0° 354° (N) 2,925 6.9 -11.6°
Reaches altitude 10° 13:32:50 10° 3° (N) 2,008 5.9 -11.9°
Maximum altitude 13:36:54 34° 70° (ENE) 1,022 4.1 -12.5°
Drops below altitude 10° 13:40:55 10° 136° (SE) 1,978 5.9 -13.1°
Sets 13:43:17 0° 145° (SE) 2,873 6.8 -13.4°
